Regional Weather Roundup
Issued by NWS

Home | Current Version | Previous Version | Text Only | Print | Product List | Glossary Off
Versions: 1 2 3 4 5 6 7 8 9 10 11 12 13 14 15 16 17 18 19 20 21 22 23 24 25 26 27 28 29 30 31 32 33 34 35 36 37 38 39 40 41 42 43 44 45 46 47 48 49 50

000
ASUS43 KIND 242309
RWRIN

WEATHER ROUNDUP FOR INDIANA
NATIONAL WEATHER SERVICE INDIANAPOLIS IN
700 PM EDT SAT JUN 24 2017

NOTE: "FAIR" INDICATES FEW OR NO CLOUDS BELOW 12,000 FEET WITH NO
SIGNIFICANT WEATHER AND/OR OBSTRUCTIONS TO VISIBILITY.

* - STATION DOES NOT REPORT WEATHER SUCH AS PRECIPITATION OR FOG.

+ - STATION NOT QUALITY CONTROLLED BY THE NATIONAL WEATHER SERVICE.
    USE DATA WITH CAUTION...ESPECIALLY DEWPOINT AND RELATIVE
    HUMIDITY OBSERVATIONS.

INZ001>003-010>013-019-020-250000-
NORTHWEST INDIANA

CITY           SKY/WX    TMP DP  RH WIND       PRES   REMARKS
GARY /AIRPORT/   N/A     73  39  29 W20G35    30.00S
KNOX *+        MOSUNNY   73  36  25 W16       29.99S
LA PORTE +     MOSUNNY   71  45  39 W10G22    30.00R
MICHIGAN CITY+ SUNNY     72  50  46 NW6       30.00S
MONTICELLO +   MOSUNNY   72  46  40 W10       30.02S
VALPARAISO     MOSUNNY   75  45  34 W17G24    30.00S

$$

LMZ046-743>745-250000-
SOUTHERN LAKE MICHIGAN

STATION/POSITION TIME  TEMP    WIND        PRES    WAVE
                       AIR SEA DIR/SP/G            HT
                 (UTC) (F)     (DEG/KT/KT) (MB)    (FT)
BURNS HARBOR     2240   70     280/ 15/ 17 1015.9F
MICHIGAN CITY    2240   71     320/  4/  5   N/A
5NW MICH CITY    2300   69 68  290/  4/  8   N/A     2

$$

INZ004-005-014>016-021>024-250000-
NORTH CENTRAL INDIANA

CITY           SKY/WX    TMP DP  RH WIND       PRES   REMARKS
GOSHEN         SUNNY     72  47  40 NW13      29.98S
LOGANSPORT +   MOSUNNY   70  50  49 W15G24    30.02S
PERU/GRISSOM   SUNNY     73  50  43 W16G23    29.99S
ROCHESTER +    SUNNY     75  46  35 W10G21    30.00S
SOUTH BEND     SUNNY     71  49  45 NW10      29.99S
WARSAW +       MOSUNNY   72  48  43 W13G18    29.99R

$$

INZ006>009-017-018-025>027-250000-
NORTHEAST INDIANA

CITY           SKY/WX    TMP DP  RH WIND       PRES   REMARKS
AUBURN +       MOSUNNY   73  50  43 NW10G16   29.98R
FORT WAYNE     MOSUNNY   74  49  41 W18       29.98R
HUNTINGTON +   SUNNY     73  47  40 W12G17    29.99R
KENDALLVILLE + PTSUNNY   70  51  50 NW7       29.98S

$$

INZ028-029-035-036-043>045-051>053-250000-
WEST CENTRAL INDIANA

CITY           SKY/WX    TMP DP  RH WIND       PRES   REMARKS
CRAWFORDSVL +  MOSUNNY   70  48  46 W12       30.05S
GREENCASTLE +  SUNNY     72  46  40 NW8       30.06S
LAFAYETTE      MOSUNNY   72  50  45 W10       30.02F
TERRE HAUTE    MOSUNNY   74  46  36 NW12G20   30.06S

$$

INZ030>032-037>040-046>048-054>057-064-065-250000-
CENTRAL INDIANA

CITY           SKY/WX    TMP DP  RH WIND       PRES   REMARKS
CP ATTERBURY + SUNNY     75  50  41 W12       30.04S
COLUMBUS       SUNNY     75  46  35 NW14      30.03S
FRANKFORT +    PTSUNNY   73  49  42 NW12      30.06S
GREENWOOD *+   PTSUNNY   75  50  41 W14G21    30.04S
INDIANAPOLIS   MOSUNNY   74  51  44 W17G26    30.03S
-EAGLE CREEK   MOSUNNY   74  49  41 NW15G26   30.03R
KOKOMO +       SUNNY     72  49  44 W18       30.03R
MARION +       MOSUNNY   72  48  43 W20G26    30.02R
MT COMFORT *+  MOSUNNY   75  50  41 W17G24    30.03S
SHELBYVILLE    SUNNY     76  51  41 W15       30.02R
ZIONSVILLE +   SUNNY     71  49  46 NW9G21    30.05R

$$

INZ033-034-041-042-049-050-058-059-250000-
EAST CENTRAL INDIANA

CITY           SKY/WX    TMP DP  RH WIND       PRES   REMARKS
MUNCIE         MOSUNNY   73  53  49 NW12      30.01R
RICHMOND +     SUNNY     72  54  53 W16       30.02S

$$

INZ060-061-067>069-081>083-085>088-250000-
SOUTHWEST INDIANA

CITY           SKY/WX    TMP DP  RH WIND       PRES   REMARKS
EVANSVILLE     CLOUDY    75  52  44 NW7G16    30.08R
HUNTINGBURG *+ MOSUNNY   73  53  49 NW9       30.07R
WASHINGTON +   CLOUDY    75  48  37 NW9       30.06S

$$

INZ062-063-066-070>080-084-089>092-250000-
SOUTH CENTRAL AND SOUTHEAST INDIANA

CITY           SKY/WX    TMP DP  RH WIND       PRES   REMARKS
BEDFORD +      CLOUDY    75  46  35 W6        30.05
BLOOMINGTON    SUNNY     75  50  41 NW7       30.06R
MADISON *+     PTSUNNY   77  54  44 W8        30.05S
NORTH VERNON + PTSUNNY   73  57  56 W9        30.04R
SEYMOUR +      MOSUNNY  N/A N/A N/A NW7       30.03S

$$





USA.gov is the U.S. government's official web portal to all federal, state and local government web resources and services.